Location: Riverside
(39.1734°N, 77.8561°W)
Time: 07:43:08
(UTC+00:00)

BEESAT 3 - Pass Details

Date: 02 June 2019
Orbit: 484 x 527 km, 64.9° (Epoch: 25 June)

Event Time Altitude Azimuth Distance (km) Brightness Sun altitude
Rises 03:07:27 0° 337° (NNW) 2,663 ? -22.4°
Reaches altitude 10° 03:09:50 10° 348° (NNW) 1,773 ? -22.6°
Maximum altitude 03:13:24 31° 52° (NE) 949 ? -23.0°
Enters shadow 03:13:32 31° 56° (ENE) 951 ? -23.0°
